Hourly Data Report for December 26, 2018

TORONTO CITY
ONTARIO
Current Station Operator: ECCC - MSC

43°40'00.000" N
79°24'00.000" W
112.50 m
6158355
71508
XTO

Download Data

Hourly Data (December 2018)
Hourly Data Report for December 26, 2018
TIME
LST
Temp Definition
°C
Dew Point Definition
°C
Rel Hum Definition
%
Precip. Amount Definition
mm

Wind Dir Definition
10's deg

Wind Spd Definition
km/h
Visibility Definition
km
Stn Press Definition
kPa
Hmdx Definition


Wind Chill Definition


Weather Definition


00:00 -0.5 -6.6 63 0.0 LegendMM LegendMM   101.37     LegendNANA
01:00 -0.5 -6.4 64 0.0 LegendMM LegendMM   101.39     LegendNANA
02:00 -0.2 -6.2 64 0.0 LegendMM LegendMM   101.43     LegendNANA
03:00 -0.8 -6.4 66 0.0 LegendMM LegendMM   101.47     LegendNANA
04:00 -1.4 -5.9 72 0.0 LegendMM LegendMM   101.49     LegendNANA
05:00 -0.8 -5.1 72 0.0 LegendMM LegendMM   101.51     LegendNANA
06:00 -0.3 -4.6 73 0.0 LegendMM LegendMM   101.53     LegendNANA
07:00 -0.1 -4.4 73 0.0 LegendMM LegendMM   101.55     LegendNANA
08:00 0.2 -4.4 71 0.0 LegendMM LegendMM   101.60     LegendNANA
09:00 0.6 -4.2 70 0.0 LegendMM LegendMM   101.65     LegendNANA
10:00 1.0 -4.0 69 0.0 LegendMM LegendMM   101.67     LegendNANA
11:00 1.3 -3.6 70 0.0 LegendMM LegendMM   101.64     LegendNANA
12:00 1.7 -3.3 69 0.0 LegendMM LegendMM   101.58     LegendNANA
13:00 2.2 -2.6 70 0.0 LegendMM LegendMM   101.54     LegendNANA
14:00 2.9 -2.4 68 0.0 LegendMM LegendMM   101.54     LegendNANA
15:00 3.0 -2.6 66 0.0 LegendMM LegendMM   101.56     LegendNANA
16:00 2.9 -2.7 66 0.0 LegendMM LegendMM   101.62     LegendNANA
17:00 0.8 -3.1 75 0.0 LegendMM LegendMM   101.74     LegendNANA
18:00 0.4 -4.4 70 0.0 LegendMM LegendMM   101.81     LegendNANA
19:00 -0.1 -6.0 64 0.0 LegendMM LegendMM   101.88     LegendNANA
20:00 -0.5 -6.8 63 0.0 LegendMM LegendMM   101.91     LegendNANA
21:00 -0.8 -7.8 59 0.0 LegendMM LegendMM   101.96     LegendNANA
22:00 -1.1 -7.9 60 0.0 LegendMM LegendMM   102.03     LegendNANA
23:00 -2.5 -10.2 56 0.0 LegendMM LegendMM   102.06     LegendNANA

Notes on Data Quality.

Legend

  • E = Estimated
  • M = Missing
  • NA = Not Available*
  • [empty] = Indicates an unobserved value
Date modified: